Theta_e
326 322 322 322 323 324 321 320 317 315 313 312 311 309 309 309 309 309 308 307 306 303 301 299 298 297 296 296 295 295 295 295 295 295 295 295 295 295 294 294 294 293 293
323 322 321 319 316 314 314 313 312 311 310 309 309 309 308 308 307 307 305 302 300 298 297 297 296 296 295 295 295 295 295 295 295 295 295 295 294 294 293 293 293 292 293
316 316 315 313 312 312 311 310 309 309 309 308 307 307 306 304 302 300 299 298 297 297 297 296 296 296 296 295 295 295 295 295 295 295 295 294 293 293 293 294 294 294 295
311 311 310 310 310 309 309 308 307 306 305 304 302 301 300 299 299 298 298 297 297 297 296 296 296 296 296 296 296 296 296 296 295 295 294 293 293 293 294 294 294 295 295
310 309 307 306 305 304 303 303 302 301 301 300 299 298 298 297 297 297 296 296 296 296 297 297 297 297 297 297 297 296 296 296 295 295 295 294 295 294 295 295 294 294 295
306 305 304 303 303 302 301 300 299 298 297 296 295 295 295 295 295 295 296 297 297 297 297 297 297 296 296 296 296 297 296 296 296 295 295 294 294 295 295 294 294 294 294
303 302 301 300 300 299 298 296 295 295 295 295 295 295 295 294 294 294 294 296 295 295 295 295 295 295 294 294 294 293 293 292 293 293 294 294 294 294 295 295 295 295 295
301 300 299 298 297 296 295 295 295 295 295 295 295 294 294 294 294 294 294 294 294 293 293 293 293 292 292 292 291 292 292 293 293 293 293 293 294 294 294 294 295 295 296
299 299 298 297 295 294 295 295 295 295 295 295 295 294 293 293 293 292 292 291 291 290 289 289 290 291 291 292 293 292 293 293 293 293 293 294 295 295 296 297 296 295 294
298 297 295 294 294 295 295 295 295 295 295 295 293 292 291 291 291 290 289 289 289 290 291 291 291 291 292 293 293 292 292 292 293 293 293 293 293 294 295 295 295 294 294
296 295 294 294 295 295 295 295 295 295 293 292 291 290 289 289 288 288 290 291 291 291 291 291 290 290 291 292 292 293 293 293 294 293 293 292 293 293 293 293 293 293 292
295 294 294 294 294 294 294 293 292 291 290 288 288 288 289 289 289 289 290 290 290 290 290 290 290 290 291 292 293 293 293 293 293 292 291 290 289 290 290 290 290 290 291
294 294 293 293 293 292 291 289 288 288 288 289 290 289 288 287 287 287 288 288 289 289 289 290 290 290 290 290 291 291 291 291 291 290 290 290 289 289 290 290 290 290 290
293 293 293 292 291 289 289 289 289 290 289 288 287 286 286 287 287 288 288 289 289 289 289 291 292 291 290 289 289 288 288 288 288 288 288 288 288 288 289 289 289 289 289
293 292 291 290 289 289 289 289 288 287 287 286 287 287 287 287 287 289 289 289 289 290 291 290 289 289 288 288 289 289 289 289 288 288 287 288 288 288 288 288 288 288 289
292 290 289 289 289 289 288 287 287 287 287 288 289 288 287 287 288 289 289 289 289 289 288 288 288 288 288 288 288 288 288 288 288 287 287 287 287 287 287 287 288 288 288
290 289 289 290 289 288 288 288 288 287 287 290 290 289 289 287 288 288 288 288 288 288 288 288 288 288 288 288 288 288 288 288 287 287 287 287 287 287 287 287 288 288 288
289 289 289 289 288 288 288 288 288 288 288 290 290 289 288 288 288 288 288 288 289 289 289 289 289 289 289 289 289 288 288 288 288 288 287 287 287 287 287 287 288 288 288
289 288 289 288 288 288 288 288 288 287 287 290 290 290 289 288 289 289 289 289 289 288 288 288 288 288 289 289 288 288 288 288 288 288 287 287 287 287 287 287 288 288 288
288 288 288 288 287 288 288 288 288 287 287 289 289 288 287 288 289 289 289 289 288 288 288 288 289 290 290 289 289 288 288 288 287 287 287 287 287 287 287 287 287 287 287
288 288 288 288 288 288 288 288 288 287 287 289 289 288 286 288 289 289 289 287 289 288 289 290 291 291 291 291 291 290 289 288 288 287 287 287 287 287 287 287 287 287 287
288 288 288 288 288 288 288 288 288 288 287 288 288 288 289 289 288 288 288 287 288 290 291 291 292 293 293 293 293 292 292 291 289 288 287 287 287 287 287 287 287 287 287
288 288 288 288 288 288 288 288 288 287 286 287 287 288 288 288 288 288 287 288 289 291 291 292 293 293 293 293 293 294 293 293 293 292 290 289 288 288 288 287 287 287 287
289 289 289 289 289 288 288 288 288 287 286 287 287 287 288 288 288 289 288 289 290 291 291 292 292 292 293 294 293 294 294 293 294 293 293 293 293 292 291 289 289 289 289
289 289 289 289 289 288 288 288 288 287 286 285 286 287 288 288 289 289 288 289 290 291 291 291 292 293 293 293 294 294 294 294 294 294 295 294 294 294 294 294 294 294 294
290 289 289 289 289 288 287 287 288 287 286 285 286 286 287 287 288 288 288 289 290 290 290 291 291 292 292 293 293 293 293 293 294 294 294 295 294 295 295 295 295 295 295
Wind_Speed
10 12 10 8 9 11 7 7 9 9 9 11 13 15 15 17 16 16 15 15 15 16 16 15 15 16 16 17 17 18 20 20 21 20 27 28 29 28 27 25 25 25 27
14 15 14 15 13 9 10 9 8 7 8 8 10 11 12 12 12 13 14 14 14 14 15 15 16 17 17 16 17 18 20 21 23 22 22 25 27 27 27 27 26 26 28
16 16 16 14 12 11 10 10 9 8 8 8 7 8 9 10 12 13 13 13 14 15 16 17 17 17 17 18 19 20 20 20 21 19 22 23 28 27 26 27 24 23 23
20 19 18 17 14 12 11 8 6 5 3 3 5 7 9 11 12 14 14 15 16 18 19 19 18 19 20 20 20 21 21 22 20 25 27 25 26 27 26 26 20 17 19
15 14 14 12 11 9 7 4 2 1 3 6 8 10 12 14 14 15 16 17 18 19 21 21 22 22 22 22 23 21 20 22 24 27 25 23 23 21 20 22 21 23 19
11 12 10 7 5 3 2 2 3 5 7 9 10 11 12 13 15 15 16 17 20 23 24 25 25 26 24 22 23 22 22 24 25 25 26 26 28 23 20 21 22 23 21
10 10 8 6 4 3 3 5 6 7 8 9 10 12 13 14 15 16 16 17 21 24 25 25 25 24 23 23 24 27 28 29 28 27 27 29 25 21 20 21 21 22 23
10 9 7 4 2 3 4 4 5 6 7 9 11 13 14 15 16 17 18 20 22 23 24 25 27 28 27 26 26 27 28 25 23 22 23 24 23 25 26 24 26 28 31
7 5 2 2 4 4 4 5 7 8 11 14 15 16 16 15 15 17 18 22 24 26 25 24 24 25 23 21 21 24 25 27 24 25 24 24 24 25 25 24 18 13 17
2 1 3 3 4 4 5 6 8 11 13 16 15 13 13 15 17 20 21 21 23 23 22 20 17 18 19 19 21 23 25 24 22 23 23 22 25 27 27 22 22 18 17
1 2 3 3 3 4 6 9 11 13 14 13 13 14 16 17 19 20 18 16 19 21 22 23 22 20 20 20 19 20 24 23 20 18 19 21 22 23 22 23 26 28 26
2 3 3 4 5 7 9 11 11 11 12 14 15 16 16 17 18 20 14 15 15 19 22 22 21 20 19 21 21 22 21 22 26 25 26 27 25 23 23 25 28 29 30
3 4 4 5 7 8 8 10 10 12 13 15 17 19 21 22 20 18 12 13 14 16 18 19 19 18 18 20 22 21 20 25 28 29 29 29 26 24 21 19 19 19 19
4 4 4 5 6 8 10 10 12 13 15 18 20 22 22 20 18 15 19 20 19 18 18 21 20 18 23 25 27 26 24 23 25 26 25 21 20 21 21 18 18 17 20
2 3 3 5 7 8 9 11 13 14 17 18 19 19 19 17 16 18 17 17 18 20 21 24 26 27 26 24 22 21 20 18 18 17 17 17 16 18 19 17 16 15 18
2 2 3 5 7 8 9 9 11 13 14 15 18 17 15 15 16 16 17 17 18 20 22 23 22 22 22 21 21 20 18 18 16 16 17 17 17 18 19 17 16 16 17
1 2 3 5 7 8 10 13 15 14 14 17 16 15 14 14 15 15 17 18 18 18 18 19 19 19 19 20 20 20 21 19 17 17 17 17 17 17 17 17 17 17 18
1 1 3 5 7 9 10 13 15 19 21 21 17 16 13 14 16 15 15 17 16 14 16 18 19 20 21 21 22 22 22 21 20 18 18 17 16 17 16 17 17 16 16
1 1 3 5 7 9 11 13 14 17 19 22 20 16 15 17 16 15 15 16 18 19 18 19 20 22 22 23 23 22 22 21 19 18 19 19 18 17 17 17 17 17 14
1 1 3 5 7 8 11 12 14 16 19 21 19 18 20 18 17 17 16 17 18 16 18 21 21 19 21 21 23 23 21 19 18 16 15 15 14 15 16 16 15 17 18
2 1 3 5 6 8 11 12 13 16 18 19 19 17 16 15 16 18 18 18 19 17 17 16 18 20 21 23 24 25 22 19 15 13 12 11 12 13 14 14 15 17 16
2 0 2 4 6 9 11 13 14 15 15 18 19 18 16 15 15 18 19 20 15 13 12 15 20 21 22 24 26 27 27 22 17 13 10 10 11 12 12 13 15 16 15
3 0 2 4 7 9 12 13 13 13 14 17 18 19 17 16 16 18 20 18 12 10 11 14 18 18 19 20 22 27 23 24 24 20 14 11 10 11 13 14 15 16 15
3 0 3 5 8 10 12 12 12 12 14 17 18 18 17 16 17 18 17 12 11 11 11 14 15 17 21 20 17 21 22 26 21 20 22 20 16 12 9 9 11 12 13
3 0 3 5 8 11 13 12 11 12 14 15 17 17 16 15 16 16 18 10 10 14 13 14 15 17 18 20 16 16 17 19 21 22 20 20 18 19 18 17 18 18 18
3 1 3 6 9 11 13 11 11 12 14 14 17 17 17 15 15 17 17 14 11 13 14 16 16 17 18 19 20 21 21 22 23 22 23 23 22 22 22 23 23 24 25
Wind_Direction
103 159 174 202 238 228 173 153 134 141 160 179 204 214 218 221 225 229 236 244 252 256 259 264 269 272 276 278 277 275 272 273 276 282 290 290 291 294 292 288 286 287 285
107 117 124 122 125 129 130 131 136 154 170 184 195 204 210 219 230 240 250 258 262 266 268 273 275 278 278 278 275 274 276 281 283 283 287 296 298 297 293 290 289 287 286
108 112 112 116 117 115 114 114 118 132 148 163 177 201 224 242 252 260 267 271 271 272 274 279 280 278 276 278 280 280 281 284 289 289 295 296 303 305 303 298 291 289 291
105 103 101 99 98 101 100 102 108 119 142 203 236 254 260 267 274 278 280 278 278 281 282 279 276 279 283 287 283 284 285 288 289 295 298 299 301 305 301 302 294 291 287
100 99 96 97 94 92 94 92 75 332 288 283 283 286 287 287 286 284 281 279 279 277 274 274 279 284 286 283 279 284 282 281 284 288 291 293 289 291 284 295 290 299 293
105 105 102 101 97 88 64 4 320 304 297 293 292 289 286 288 286 283 282 280 276 273 276 280 281 281 279 274 266 266 273 280 282 285 288 287 288 285 285 289 291 287 289
111 112 111 104 90 54 353 326 314 309 309 312 310 307 302 298 292 285 279 278 278 282 284 286 285 282 279 278 277 276 275 275 275 278 276 278 280 278 279 279 275 276 278
112 114 109 96 45 3 339 323 325 328 325 322 316 310 305 296 291 288 288 283 284 284 285 285 284 283 281 282 283 285 288 285 283 276 270 272 277 279 272 274 277 274 277
120 116 94 360 339 335 336 341 336 326 322 321 315 308 301 296 292 290 289 290 291 290 289 287 289 287 287 285 284 284 284 285 288 285 276 278 280 279 278 283 267 281 296
113 24 338 334 340 338 331 328 321 317 312 309 307 305 301 299 297 295 296 297 296 299 300 301 297 290 288 285 283 284 285 288 286 285 283 278 268 273 264 260 266 274 276
41 346 340 347 341 330 322 316 310 307 305 306 307 306 303 302 302 301 303 300 301 302 299 299 300 295 294 291 289 283 278 282 291 289 288 290 285 281 272 267 268 271 274
354 353 359 349 337 327 320 317 317 316 316 314 314 313 314 314 313 312 312 306 302 294 295 298 300 300 296 293 292 285 288 292 288 287 290 293 291 281 278 274 267 267 271
343 348 346 342 334 333 334 330 327 328 327 326 325 325 323 323 324 331 337 325 315 308 301 302 301 299 297 291 287 290 288 280 281 285 287 288 287 284 283 282 275 271 270
337 340 348 349 345 348 343 344 346 342 336 332 334 330 330 332 339 348 341 332 329 325 322 316 310 300 297 297 295 292 289 288 285 282 283 283 281 281 281 274 277 275 276
327 336 356 353 355 352 354 356 351 348 342 336 336 333 335 335 337 330 324 325 327 321 311 301 303 304 306 309 308 306 302 295 289 288 287 286 282 283 281 278 271 273 273
315 339 357 360 354 353 5 8 357 355 351 346 339 337 332 329 327 329 331 327 317 308 309 313 316 317 317 317 315 313 310 307 301 291 285 289 281 277 278 274 274 271 274
294 345 356 360 354 357 1 1 0 10 4 353 351 347 343 340 337 339 332 323 323 325 327 329 329 329 328 327 325 321 315 311 303 291 286 284 283 279 275 271 270 268 277
280 348 352 354 353 358 2 357 358 358 358 1 359 352 356 355 355 342 342 343 351 354 349 343 340 337 334 332 328 323 317 313 308 300 292 286 282 279 276 269 268 269 271
266 329 347 350 355 1 356 355 356 356 356 355 357 4 4 9 6 1 359 1 359 356 356 352 349 347 343 339 334 328 323 318 310 300 292 287 281 276 274 273 270 273 265
225 311 346 353 357 358 353 357 356 355 356 354 358 359 4 359 4 7 7 1 359 0 357 354 358 358 351 344 342 337 331 324 318 310 300 294 281 272 271 273 270 265 276
202 320 350 352 356 355 352 356 354 353 353 359 1 2 352 351 1 1 359 355 1 360 4 11 7 6 6 7 7 359 349 340 329 314 301 286 279 275 273 274 271 273 275
182 296 349 351 352 349 352 353 349 348 357 1 360 1 1 3 2 357 355 351 7 21 15 6 5 6 7 7 1 1 5 4 355 340 318 294 281 278 275 275 273 273 274
174 228 349 348 349 350 349 349 349 354 360 1 358 2 5 5 7 0 1 4 19 18 9 4 7 7 359 2 2 360 5 6 6 3 351 330 304 285 280 278 279 276 272
171 247 349 346 348 348 347 347 351 356 358 2 3 4 2 3 4 2 359 6 14 5 351 349 350 351 344 356 360 356 356 357 353 7 4 357 349 338 317 298 286 284 280
172 273 344 346 346 344 345 345 349 352 355 3 2 1 1 1 1 359 359 350 352 358 350 347 340 345 339 345 353 347 345 345 344 344 334 334 335 335 330 321 315 310 302
179 282 340 345 344 342 341 343 349 351 353 360 3 0 0 357 358 355 356 351 334 337 334 335 338 334 335 335 339 341 340 341 336 336 331 322 316 310 306 302 299 296 293